Sussex, NJ

8:03 AM EST on November 13, 2019 (GMT -0500)
Sussex

Weather History for KFWN - September, 2019

Change the Weather History Date:

Saturday, September 21, 2019

  Actual Average Record
Temperature  
Mean Temperature 65 °F -  
Max Temperature 86 °F 73 °F 90 °F (1983)
Min Temperature 46 °F 47 °F 30 °F (1993)
Growing Degree Days 15 (Base 50)    
Moisture  
Dew Point 51 °F    
Average Humidity 75    
Maximum Humidity 100    
Minimum Humidity 26    
Precipitation  
Precipitation 0.00 in - - ()
Sea Level Pressure  
Sea Level Pressure 30.21 in    
Wind  
Wind Speed 1 mph ()    
Max Wind Speed 8 mph    
Max Gust Speed -    
Visibility 8.2 miles    
Events      
Averages and records for this station are not official NWS values.
T = Trace of Precipitation, MM = Missing Value Source: Averaged Metar Reports

Daily Weather History Graph

Daily Weather History Graph

Search for Another Location

Airport or City:

Astronomy

Sep. 21, 2019 Rise Set
Actual Time 6:44 AM EDT 6:57 PM EDT
Civil Twilight 6:17 AM EDT 7:25 PM EDT
Nautical Twilight 5:44 AM EDT 7:57 PM EDT
Astronomical Twilight 5:11 AM EDT 8:30 PM EDT
Moon 11:29 PM EDT (9/21) 1:52 PM EDT (9/21)
Length of Visible Light 13h 08m
Length of Day
12h 13m
Waning Gibbous, 55% of the Moon is Illuminated
Sep 21
Waning Gibbous
Sep 21
Last Quarter
Sep 28
New
Oct 5
First Quarter
Oct 13
Full

Hourly Weather History & Observations

Time (EDT) Temp. Heat Index Dew Point Humidity Pressure Visibility Wind Dir Wind Speed Gust Speed Precip Events Conditions
12:53 AM 52.0 °F - 48.9 °F 89% 30.21 in 10.0 mi Calm Calm - N/A   Clear
1:37 AM 48.9 °F - 48.0 °F 97% 30.23 in 1.0 mi Calm Calm - N/A   Clear
1:44 AM 50.0 °F - 48.0 °F 93% 30.22 in 0.8 mi Calm Calm - N/A   Clear
1:47 AM 50.0 °F - 48.2 °F 94% 30.22 in 1.8 mi Calm Calm - N/A   Clear
1:53 AM 51.1 °F - 48.0 °F 89% 30.22 in 10.0 mi West 3.5 mph - N/A   Clear
2:53 AM 50.0 °F - 48.0 °F 93% 30.21 in 9.0 mi Calm Calm - N/A   Clear
5:00 AM 46.9 °F - 45.0 °F 93% 30.22 in 2.0 mi Calm Calm - N/A   Partly Cloudy
5:09 AM 46.9 °F - 45.0 °F 93% 30.22 in 8.0 mi Calm Calm - N/A   Clear
5:53 AM 46.9 °F - 45.0 °F 93% 30.23 in 9.0 mi Calm Calm - N/A   Clear
6:53 AM 46.0 °F - 44.1 °F 93% 30.24 in 4.0 mi Calm Calm - N/A   Clear
7:53 AM 48.9 °F - 48.9 °F 100% 30.25 in 10.0 mi Calm Calm - 0.00 in   Clear
8:53 AM 57.0 °F - 54.0 °F 89% 30.25 in 10.0 mi SW 3.5 mph - 0.00 in   Clear
9:53 AM 64.9 °F - 55.9 °F 73% 30.25 in 10.0 mi Calm Calm - N/A   Clear
10:53 AM 72.0 °F - 54.0 °F 53% 30.25 in 10.0 mi Calm Calm - N/A   Clear
11:53 AM 77.0 °F - 55.0 °F 47% 30.23 in 10.0 mi Variable 3.5 mph - N/A   Clear
12:53 PM 79.0 °F - 55.9 °F 45% 30.21 in 10.0 mi Variable 3.5 mph - N/A   Clear
1:53 PM 82.0 °F 81.4 °F 55.0 °F 39% 30.18 in 10.0 mi ESE 4.6 mph - 0.00 in   Clear
2:53 PM 84.0 °F - 46.0 °F 26% 30.17 in 10.0 mi East 8.1 mph - N/A   Clear
3:53 PM 84.9 °F - 48.9 °F 29% 30.16 in 10.0 mi Calm Calm - N/A   Clear
4:53 PM 82.9 °F - 50.0 °F 32% 30.16 in 10.0 mi Calm Calm - N/A   Clear
5:53 PM 81.0 °F - 52.0 °F 36% 30.16 in 10.0 mi South 4.6 mph - N/A   Clear
6:53 PM 70.0 °F - 57.0 °F 63% 30.16 in 10.0 mi Calm Calm - N/A   Clear
7:53 PM 64.9 °F - 55.9 °F 73% 30.17 in 10.0 mi Calm Calm - 0.00 in   Clear
8:53 PM 62.1 °F - 57.0 °F 84% 30.19 in 10.0 mi Calm Calm - N/A   Clear
9:53 PM 59.0 °F - 55.9 °F 90% 30.19 in 10.0 mi Calm Calm - N/A   Clear
10:53 PM 57.0 °F - 55.0 °F 93% 30.20 in 9.0 mi Calm Calm - N/A   Clear
11:34 PM 57.0 °F - 54.0 °F 89% 30.20 in 2.0 mi Calm Calm - N/A   Clear
11:43 PM 57.0 °F - 54.0 °F 89% 30.20 in 10.0 mi Calm Calm - N/A   Clear
11:53 PM 57.0 °F - 55.0 °F 93% 30.19 in 10.0 mi Calm Calm - N/A   Clear